Regional Weather Roundup
Issued by NWS

Home | Current Version | Previous Version | Graphics & Text | Print | Product List | Glossary On
Versions: 1 2 3 4 5 6 7 8 9 10 11 12 13 14 15 16 17 18 19 20 21 22 23 24 25 26 27
000
ASUS45 KBOU 180907
RWRCO

WEATHER ROUNDUP FOR COLORADO
NATIONAL WEATHER SERVICE DENVER/BOULDER CO
200 AM MST WED JAN 18 2017

NOTE: "FAIR" INDICATES FEW OR NO CLOUDS BELOW 12000 FEET WITH NO
SIGNIFICANT WEATHER AND/OR OBSTRUCTIONS TO VISIBILITY.

COZ001>005-013-030-031-181000-
...NORTHWEST COLORADO...

CITY           SKY/WX    TMP DP  RH WIND       PRES   REMARKS
CRAIG          FOG        7   4  87 CALM      30.20S VSB 1/4
HAYDEN         FAIR       7   1  78 CALM      30.17R
MEEKER         MOCLDY    11   8  88 CALM      30.19R
MOUNT WERNER   NOT AVBL
STEAMBOAT SPGS FAIR       5   2  86 CALM      30.17R
WALDEN           N/A    N/A N/A N/A CALM      30.13S
$$

COZ006>008-011-181000-
...WEST CENTRAL VALLEYS...

CITY           SKY/WX    TMP DP  RH WIND       PRES   REMARKS
GRAND JUNCTION CLOUDY    30  29  96 NW3       30.18R
MONTROSE       CLOUDY    34  31  88 CALM      30.18R
EAGLE          CLOUDY    17  14  88 CALM      30.22R
RIFLE          CLOUDY    25  22  88 CALM      30.19R
DELTA          CLOUDY    36  31  80 CALM      30.18R
NUCLA          FAIR      28  27  93 E6        30.20R WCI  22
$$

COZ017>023-064>068-181000-
...SOUTHWEST COLORADO...

CITY           SKY/WX    TMP DP  RH WIND       PRES   REMARKS
DURANGO        CLOUDY    30  28  92 CALM      30.13R
CORTEZ         FAIR      27  26  96 NE5       30.15R WCI  22
PAGOSA SPRINGS CLOUDY    31  31 100 CALM      30.13S
TELLURIDE      FAIR      18  14  84 SE3       30.16R
WOLF CREEK PAS   N/A     18  18 100 SW7       30.17S WCI   8
$$

COZ009-010-012-014-032>034-037-058>063-181000-
...CENTRAL COLORADO...

CITY           SKY/WX    TMP DP  RH WIND       PRES   REMARKS
ASPEN          FAIR      10   6  84 S6        30.14R WCI   0
BUENA VISTA    FAIR      18   9  68 NW10G17   30.10S WCI   6
COPPER MTN     FAIR      28 -27   8 CALM      30.12S
BERTHOUD PASS  NOT AVBL
COTTONWOOD PAS FAIR      30   1  29 SW6       30.08S WCI  24
GUNNISON       CLOUDY    22  16  78 CALM      30.17S
KREMMLING      FOG       14  10  85 CALM      30.21S VSB 1/4
LEADVILLE      FAIR       8   2  76 NE6       30.09F WCI  -2
MONARCH PASS     N/A     14  10  85 MISG      30.21F
SALIDA         FAIR      23  15  71 NW8       30.18F WCI  14
SUNLIGHT       FOG       18  14  86 W8        30.16S VSB 1/2 WCI   7
WILKERSON PASS FAIR      25   0  33 CALM      30.12S
$$

COZ069>075-181000-
...SAN LUIS VALLEY/SANGRE DE CRISTO MOUNTAINS...

CITY           SKY/WX    TMP DP  RH WIND       PRES   REMARKS
ALAMOSA        CLOUDY    25  25 100 CALM      30.12S
LA VETA PASS   MOCLDY    19  16  86 NE22      30.07F FOG     WCI   3
SAGUACHE       FAIR      18  14  86 CALM      30.12S
$$

COZ035-036-038>040-181000-
...NORTHERN COLORADO FRONT RANGE...

CITY           SKY/WX    TMP DP  RH WIND       PRES   REMARKS
DENVER INTL AP FAIR      27  16  63 SW9       29.97F WCI  18
DMNS CITY PARK   N/A     26  18  71 SE7       29.98S WCI  19
AURORA         CLEAR     28  15  58 S10       29.97F WCI  19
FRONT RANGE AP FAIR      27  14  59 S8G17     29.98S WCI  18
ERIE MUNI ARPT FAIR      16  14  90 CALM      29.98F
BOULDER MUN AP FAIR      28  23  80 CALM      29.97F
CENTENNIAL     FAIR      24  15  68 S3        29.97F
BROOMFIELD     FAIR      36  12  38 N6        29.97F
FORT COLLINS   FAIR      27  16  63 CALM      29.99F
LONGMONT       FAIR      22  16  77 W3        30.00F
$$

COZ041-046-047-076>085-087-088-181000-
...PIKES PEAK/PALMER DIVIDE AND SOUTHERN FOOTHILLS...

CITY           SKY/WX    TMP DP  RH WIND       PRES   REMARKS
COLO. SPRINGS  FAIR      26  11  52 N12       29.99F WCI  16
A. F. ACADEMY  FAIR      19  13  80 N12       29.99F WCI   6
SCHRIEVER AFB  NOT AVBL
ELLICOTT       FAIR     N/A N/A N/A CALM      29.97F
FALCON         FAIR      22   8  54 NW8       30.00F WCI  13
FORT CARSON    PTCLDY    28  19  69 N5        30.00F WCI  23
LIMON          FAIR      13  12  96 CALM      29.99F
MONUMENT HILL  FAIR      25   5  42 SW9       30.01S WCI  15
TRINIDAD       FAIR      33  27  78 W22       30.00F WCI  21
$$

COZ042>045-048>051-090-091-181000-
...NORTHEAST COLORADO...

CITY           SKY/WX    TMP DP  RH WIND       PRES   REMARKS
GREELEY ARPT   FAIR      19  17  92 CALM      30.00F
AKRON          FAIR      27  19  72 W12       29.97F WCI  17
BURLINGTON     FAIR      27  25  92 SW7       30.00S WCI  19
WRAY           FAIR      27  23  86 W6        30.01S WCI  20
STERLING       FAIR      19  18  93 S7        29.98S WCI  10
HOLYOKE        FAIR      21  18  86 W10       29.99S WCI  10
FORT MORGAN    FAIR      20  16  86 W9        29.98F WCI   9
$$

COZ086-089-092>099-181000-
...SOUTHEAST COLORADO...

CITY           SKY/WX    TMP DP  RH WIND       PRES   REMARKS
PUEBLO         FOG       29  26  89 SW3       30.01S VSB 1/4
LA JUNTA       CLOUDY    21  18  88 SW8       30.03F FOG     WCI  11
LAMAR          FAIR      19  17  92 SW5       30.03F WCI  12
SPRINGFIELD      N/A     32  30  92 SW13      30.01F WCI  22
$$




USA.gov is the U.S. government's official web portal to all federal, state and local government web resources and services.